[[{"header":{"parameterUnit":"m.s-1","parameterCategory":1,"la1":30.2991,"la2":30.254,"lo1":-89.0895,"lo2":-89.0444,"dy":0.0017,"dx":0.0017,"nx":28,"ny":28,"refTime":"2025-04-30T09:00:00:Z","depth":0,"parameterNumber":2,"parameterNumberName":"U-component_of_WINDS"},"data":[0,0,0,0,0,0,0,0,0,0,0,0,0,0,0,0,0,0,0,0,0,0,0,0,0,0,0,0,0,0,0,0,0,0,0,0,0,0,0,0,0,0,0,0,0,0,0,0,0,0,0,0,0,0,0,0,0,0,-0.7346,-0.7347,0,-0.7455,-0.7456,-0.7457,-0.7518,-0.7518,-0.7518,-0.7519,-0.7628,-0.7631,-0.7634,0,0,0,0,0,0,0,0,0,0,0,0,0,-0.7189,-0.7191,-0.7346,-0.7347,-0.7348,-0.7455,-0.7456,-0.7458,-0.7518,-0.7518,-0.7518,-0.7519,-0.7627,-0.7631,-0.7634,0,0,0,0,0,0,0,0,0,0,0,0,0,-0.7273,-0.7192,-0.7345,-0.7391,-0.7397,-0.7454,-0.7456,-0.7458,-0.7518,-0.7518,-0.7519,-0.7519,-0.7626,-0.763,-0.7634,-0.7654,0,0,-0.7647,-0.7649,0,0,0,0,0,0,0,0,-0.7268,-0.7279,-0.7383,-0.7388,-0.7394,-0.7473,-0.7441,-0.7524,-0.7518,-0.7472,-0.7519,-0.7519,-0.7576,-0.7585,-0.7604,-0.7659,-0.7664,-0.7647,-0.765,-0.7652,-0.7653,0,0,0,0,0,0,0,-0.7263,-0.7275,-0.7389,-0.7385,-0.7391,-0.7406,-0.7419,-0.7457,-0.7521,-0.7476,-0.7481,-0.7493,-0.7579,-0.76,-0.7607,-0.7666,-0.7647,-0.7651,-0.7653,-0.7655,-0.7743,-0.7743,0,0,0,0,0,0,-0.7249,-0.7269,-0.7385,-0.7392,-0.7331,-0.7409,-0.7423,-0.7447,-0.7521,-0.7532,-0.7492,-0.7495,-0.7593,-0.7602,-0.7611,-0.764,-0.7652,-0.7655,-0.7658,-0.7744,-0.7743,-0.7743,0,0,0,0,0,0,-0.7246,-0.7259,-0.7381,-0.7332,-0.7349,-0.7411,-0.7439,-0.7449,-0.7471,-0.7533,-0.7545,-0.7502,-0.7594,-0.7606,-0.7644,-0.7645,-0.7657,-0.7661,-0.7744,-0.7744,-0.7743,-0.7698,0,0,0,0,0,0,-0.7241,-0.7258,-0.7266,-0.7332,-0.7351,-0.7411,-0.7439,-0.7451,-0.7478,-0.7482,-0.7545,-0.7556,-0.7595,-0.7637,-0.7648,-0.7651,-0.7664,-0.7744,-0.7744,-0.7743,-0.7699,-0.7696,-0.7693,0,0,0,0,0,-0.7235,-0.7248,-0.7266,-0.728,-0.7363,-0.7411,-0.7422,-0.7467,-0.7477,-0.7486,-0.7527,-0.7554,-0.7643,-0.764,-0.7653,-0.7657,-0.7744,-0.7744,-0.7743,-0.7701,-0.7697,-0.7693,0,0,0,0,0,0,-0.718,-0.7257,-0.7278,-0.7313,-0.7355,-0.7421,-0.7434,-0.7461,-0.7501,-0.7503,-0.7557,-0.757,-0.7603,-0.7634,-0.763,-0.7681,-0.7696,-0.7699,-0.766,-0.7656,-0.7653,-0.7645,-0.7668,0,0,0,0,0,-0.7172,-0.7205,-0.7271,-0.7295,-0.7315,-0.7371,-0.7393,-0.7424,-0.747,-0.7488,-0.7531,-0.7574,-0.7612,-0.7636,-0.7674,-0.7704,-0.7719,-0.7713,-0.771,-0.7707,-0.7708,-0.7728,-0.7726,-0.7742,-0.7742,-0.7742,0,0,-0.7155,-0.7201,-0.7219,-0.7285,-0.7321,-0.7354,-0.7385,-0.7419,-0.7444,-0.7493,-0.7532,-0.7565,-0.7617,-0.7651,-0.7668,-0.7677,-0.7707,-0.7707,-0.7704,-0.7707,-0.7727,-0.7726,-0.7724,-0.7742,-0.7742,-0.7742,0,0,-0.7142,-0.718,-0.7205,-0.7241,-0.7296,-0.7333,-0.7339,-0.7402,-0.7426,-0.7466,-0.7504,-0.7534,-0.7598,-0.7634,-0.766,-0.7661,-0.7688,-0.7672,-0.7655,-0.7673,-0.7672,-0.7671,-0.7672,-0.7672,-0.7673,-0.7673,-0.7673,0,-0.7114,-0.7166,-0.7214,-0.7246,-0.7274,-0.7321,-0.7346,-0.7379,-0.7443,-0.7461,-0.7471,-0.7553,-0.7591,-0.7635,-0.7635,-0.7654,-0.7663,-0.7665,-0.7668,-0.7668,-0.7668,-0.767,-0.767,-0.7671,-0.7671,-0.7671,-0.7671,0,-0.7129,-0.7164,-0.7178,-0.724,-0.7269,-0.7298,-0.735,-0.7374,-0.7403,-0.7439,-0.7479,-0.7526,-0.7575,-0.7588,-0.7616,-0.7636,-0.764,-0.7658,-0.7675,-0.7663,-0.7666,-0.7667,-0.7667,-0.7668,-0.7669,-0.7669,0,0,-0.7084,-0.7173,-0.7177,-0.7206,-0.7271,-0.7299,-0.7329,-0.7378,-0.7398,-0.7441,-0.7468,-0.7522,-0.754,-0.7569,-0.7602,-0.7617,-0.7616,-0.7634,-0.7636,-0.763,-0.7642,-0.7629,-0.7628,-0.7634,-0.7635,-0.7635,-0.7638,0,-0.708,-0.7138,-0.7183,-0.7224,-0.7257,-0.7303,-0.733,-0.7372,-0.7407,-0.744,-0.7478,-0.7516,-0.7536,-0.7554,-0.7572,-0.7612,-0.762,-0.7613,-0.766,-0.7661,-0.7646,-0.763,-0.7615,-0.7616,-0.7639,-0.764,-0.764,0,-0.7084,-0.7126,-0.717,-0.7233,-0.7249,-0.7272,-0.7321,-0.7352,-0.7401,-0.7426,-0.7459,-0.7493,-0.7528,-0.7541,-0.7589,-0.7584,-0.7606,-0.7629,-0.763,-0.7636,-0.765,-0.7636,-0.7617,-0.7618,-0.7642,-0.7641,-0.7641,0,-0.7047,-0.7115,-0.7151,-0.7174,-0.7247,-0.7263,-0.7294,-0.7344,-0.737,-0.7413,-0.7431,-0.7476,-0.7501,-0.7536,-0.7581,-0.7586,-0.7625,-0.7642,-0.7646,-0.7645,-0.7652,-0.7651,-0.7637,-0.7665,-0.7665,-0.7665,-0.7665,0,-0.7039,-0.7064,-0.7135,-0.7157,-0.7188,-0.7239,-0.7267,-0.7302,-0.7346,-0.7376,-0.7417,-0.7444,-0.7502,-0.7535,-0.7571,-0.7606,-0.7617,-0.7637,-0.7646,-0.7634,-0.7631,-0.7649,-0.7651,-0.7666,-0.7666,-0.7665,-0.7665,0,-0.7003,-0.7051,-0.7093,-0.716,-0.7177,-0.7196,-0.7253,-0.7276,-0.7313,-0.735,-0.7362,-0.742,-0.7462,-0.7511,-0.7568,-0.7592,-0.7625,-0.7638,-0.7608,-0.7614,-0.7616,-0.7615,-0.7613,-0.7616,-0.7641,-0.764,-0.764,0,-0.6994,-0.7015,-0.7084,-0.7107,-0.7138,-0.7174,-0.7202,-0.7253,-0.728,-0.7339,-0.7355,-0.74,-0.744,-0.7505,-0.7552,-0.7596,-0.7611,-0.7608,-0.7618,-0.7605,-0.7612,-0.7611,-0.7613,-0.7604,-0.7604,-0.7604,-0.7603,0,-0.6975,-0.6998,-0.7037,-0.7085,-0.7117,-0.7157,-0.7198,-0.7214,-0.7274,-0.7303,-0.7347,-0.7377,-0.7437,-0.7481,-0.7532,-0.7564,-0.7594,-0.76,-0.7603,-0.7591,-0.7573,-0.7584,-0.7601,-0.7599,-0.76,-0.76,-0.76,-0.76,-0.6953,-0.6975,-0.7026,-0.7069,-0.7105,-0.7143,-0.7169,-0.7209,-0.7247,-0.73,-0.7328,-0.7372,-0.7421,-0.7493,-0.7524,-0.7559,-0.7568,-0.7573,-0.7575,-0.7575,-0.7572,-0.7567,-0.7568,-0.7568,-0.7568,-0.7568,-0.7568,0,-0.6937,-0.6973,-0.7011,-0.7068,-0.7101,-0.7127,-0.7174,-0.72,-0.7238,-0.7282,-0.7321,-0.7371,-0.7415,-0.7466,-0.7513,-0.7532,-0.7546,-0.7542,-0.7542,-0.7549,-0.756,-0.7553,-0.753,-0.753,-0.753,-0.753,-0.753,-0.753,-0.6932,-0.6969,-0.6999,-0.7055,-0.7091,-0.7135,-0.716,-0.7195,-0.7231,-0.7286,-0.7323,-0.7356,-0.7403,-0.7454,-0.7496,-0.751,-0.7525,-0.7517,-0.7535,-0.7545,-0.7548,-0.7551,-0.7544,-0.752,-0.752,-0.7521,-0.7521,-0.7521]},{"header":{"parameterUnit":"m.s-1","parameterCategory":1,"la1":30.2991,"la2":30.254,"lo1":-89.0895,"lo2":-89.0444,"dy":0.0017,"dx":0.0017,"nx":28,"ny":28,"refTime":"2025-04-30T09:00:00:Z","depth":0,"parameterNumber":3,"parameterNumberName":"V-component_of_WINDS"},"data":[0,0,0,0,0,0,0,0,0,0,0,0,0,0,0,0,0,0,0,0,0,0,0,0,0,0,0,0,0,0,0,0,0,0,0,0,0,0,0,0,0,0,0,0,0,0,0,0,0,0,0,0,0,0,0,0,0,0,4.8042,4.8043,0,4.8206,4.8208,4.821,4.8277,4.8277,4.8277,4.8276,4.8445,4.845,4.8455,0,0,0,0,0,0,0,0,0,0,0,0,0,4.7787,4.7791,4.8042,4.8044,4.8046,4.8206,4.8208,4.8211,4.8277,4.8277,4.8277,4.8276,4.8444,4.8449,4.8455,0,0,0,0,0,0,0,0,0,0,0,0,0,4.7919,4.7793,4.8041,4.8098,4.8105,4.8206,4.8209,4.8211,4.8278,4.8277,4.8276,4.8276,4.8442,4.8449,4.8456,4.8512,0,0,4.8478,4.8481,0,0,0,0,0,0,0,0,4.7911,4.7928,4.8088,4.8095,4.8102,4.8221,4.8181,4.8312,4.8278,4.8212,4.8276,4.8276,4.8371,4.8384,4.8416,4.852,4.8527,4.8479,4.8483,4.8486,4.8488,0,0,0,0,0,0,0,4.7902,4.7922,4.8107,4.809,4.8099,4.8117,4.8135,4.8206,4.8293,4.8218,4.8223,4.8242,4.8375,4.8409,4.8421,4.853,4.8479,4.8485,4.8489,4.8492,4.869,4.8691,0,0,0,0,0,0,4.7883,4.7914,4.8102,4.8112,4.8004,4.8121,4.8142,4.8183,4.8292,4.8308,4.8242,4.8244,4.8397,4.8412,4.8427,4.8501,4.8486,4.8493,4.8497,4.8689,4.869,4.8691,0,0,0,0,0,0,4.7878,4.79,4.8095,4.8014,4.804,4.8126,4.8173,4.8187,4.8221,4.831,4.8326,4.8261,4.8397,4.8417,4.8491,4.8508,4.8496,4.8503,4.8688,4.869,4.8691,4.8649,0,0,0,0,0,0,4.787,4.7897,4.7919,4.8014,4.8044,4.8156,4.8174,4.8191,4.8234,4.8238,4.8332,4.8347,4.8398,4.848,4.8498,4.8518,4.8509,4.8687,4.8689,4.869,4.865,4.8649,4.8649,0,0,0,0,0,4.7861,4.79,4.7919,4.7942,4.8073,4.8156,4.8174,4.8231,4.8234,4.8258,4.8315,4.8344,4.8503,4.8487,4.8508,4.853,4.8686,4.8688,4.869,4.865,4.8649,4.8649,0,0,0,0,0,0,4.7804,4.7913,4.7936,4.8007,4.8072,4.8167,4.8198,4.8229,4.8294,4.8295,4.8364,4.8385,4.8454,4.8499,4.8479,4.8591,4.8597,4.8603,4.8559,4.8559,4.8559,4.8546,4.8515,0,0,0,0,0,4.78,4.7858,4.795,4.8004,4.8036,4.8111,4.815,4.8189,4.8258,4.8286,4.8349,4.8416,4.8481,4.8523,4.8587,4.8656,4.8679,4.8682,4.8682,4.8681,4.8686,4.8728,4.8731,4.8698,4.8698,4.8698,0,0,4.7792,4.7859,4.7891,4.7995,4.8049,4.8109,4.8134,4.8195,4.824,4.8295,4.837,4.8418,4.8498,4.857,4.8605,4.861,4.87,4.8684,4.8682,4.8688,4.873,4.8733,4.8736,4.8699,4.8699,4.8699,0,0,4.7807,4.7863,4.7915,4.797,4.8053,4.8103,4.8115,4.8207,4.8241,4.8317,4.836,4.8415,4.8525,4.8581,4.8623,4.8662,4.8692,4.8681,4.8679,4.8719,4.8722,4.8724,4.874,4.8744,4.8686,4.8686,4.8686,0,4.7787,4.7878,4.7938,4.7998,4.8043,4.8096,4.815,4.82,4.83,4.833,4.8334,4.8476,4.8533,4.862,4.8629,4.8661,4.8679,4.8671,4.8716,4.872,4.8723,4.8738,4.8744,4.8684,4.8684,4.8684,4.8684,0,4.7849,4.7911,4.7944,4.8039,4.8088,4.8144,4.8214,4.8256,4.8291,4.8341,4.8419,4.8489,4.857,4.8594,4.8628,4.8686,4.8687,4.8703,4.871,4.8723,4.8739,4.8745,4.8681,4.8682,4.8682,4.8683,0,0,4.7833,4.7962,4.7973,4.8018,4.8114,4.8164,4.8223,4.8303,4.8338,4.8405,4.8458,4.8551,4.8567,4.8615,4.8656,4.8691,4.872,4.8704,4.8707,4.8705,4.879,4.8778,4.8784,4.874,4.8741,4.8742,4.8784,0,4.7862,4.7971,4.8028,4.8112,4.8172,4.8224,4.8276,4.8341,4.839,4.8448,4.8502,4.8568,4.8583,4.8613,4.865,4.8708,4.8738,4.8706,4.879,4.8793,4.877,4.8792,4.8779,4.8815,4.879,4.8791,4.8792,0,4.7911,4.7978,4.8069,4.816,4.8187,4.8232,4.8311,4.8365,4.8441,4.8474,4.8529,4.857,4.8636,4.8638,4.873,4.8707,4.8745,4.8779,4.8782,4.8793,4.8793,4.8804,4.8827,4.8833,4.8802,4.8801,4.88,0,4.7892,4.8005,4.8074,4.8111,4.8218,4.8249,4.8295,4.837,4.8415,4.8484,4.8514,4.8589,4.863,4.8688,4.8749,4.8745,4.8836,4.8843,4.8866,4.8865,4.8884,4.8882,4.8914,4.8906,4.8906,4.8906,4.8906,0,4.7919,4.7973,4.8067,4.811,4.8172,4.8238,4.8298,4.8348,4.8415,4.8469,4.8519,4.8569,4.8645,4.8705,4.8753,4.8824,4.8841,4.8871,4.8883,4.8867,4.8863,4.8893,4.8893,4.8908,4.8907,4.8907,4.8907,0,4.7908,4.7973,4.8053,4.8148,4.8174,4.8215,4.8298,4.8342,4.8393,4.8462,4.8481,4.8563,4.8636,4.8702,4.8799,4.8832,4.8904,4.8918,4.8878,4.8885,4.8906,4.8903,4.8959,4.8971,4.8953,4.8953,4.8953,0,4.7921,4.7964,4.8065,4.8105,4.815,4.8213,4.826,4.8327,4.8373,4.8463,4.8497,4.8574,4.8639,4.8754,4.8822,4.8897,4.8915,4.8929,4.8926,4.8909,4.8917,4.8914,4.8919,4.8929,4.8928,4.8928,4.8928,0,4.7939,4.797,4.8034,4.8111,4.8165,4.8228,4.8293,4.8323,4.8402,4.8452,4.8528,4.8578,4.8678,4.8755,4.8838,4.8886,4.8921,4.8929,4.8938,4.8923,4.8898,4.8913,4.8878,4.8927,4.8927,4.8927,4.8927,4.8927,4.7942,4.7983,4.806,4.8131,4.8187,4.8248,4.8294,4.8352,4.8417,4.8503,4.8539,4.8616,4.8693,4.8808,4.8857,4.8919,4.8925,4.8939,4.8943,4.8945,4.8943,4.8888,4.8934,4.8934,4.8934,4.8934,4.8934,0,4.7963,4.8016,4.808,4.817,4.8226,4.8254,4.8328,4.8374,4.8441,4.8509,4.8573,4.8661,4.8736,4.881,4.8889,4.8925,4.8943,4.8944,4.8942,4.8953,4.8932,4.8916,4.8928,4.8928,4.8928,4.8928,4.8928,4.8928,4.7981,4.8052,4.8092,4.8193,4.8246,4.8322,4.8362,4.8419,4.8474,4.857,4.8632,4.8681,4.8752,4.8837,4.8907,4.8928,4.8955,4.8951,4.8976,4.8955,4.8954,4.8954,4.894,4.8956,4.8956,4.8992,4.8993,4.8993]}]]